Wind_Speed
12 10 8 6 4 2 2 3 5 7 9 12 14 16 17 18 20 22 23 24 24 24 25 25 25 25 25 25 25 25 26 25 25 25 24 23 23 23
13 11 9 7 5 4 3 4 5 6 8 11 13 15 18 19 21 23 23 24 25 24 26 26 26 26 26 26 26 26 27 26 26 25 25 25 25 25
14 12 10 9 7 6 5 5 6 7 8 10 13 15 17 18 21 23 23 24 25 25 26 27 27 27 27 28 28 27 27 27 27 26 26 27 27 27
15 14 12 11 9 8 7 7 8 8 9 10 12 14 16 18 20 22 24 25 26 26 27 28 27 28 28 28 29 29 28 29 29 29 29 28 28 29
16 15 14 13 12 11 10 10 10 10 11 12 13 15 17 18 20 21 23 25 26 27 28 29 29 28 29 29 30 30 30 30 31 30 30 30 30 30
19 17 16 16 15 14 13 12 12 12 13 14 15 16 18 19 21 22 23 25 26 27 29 30 30 30 29 30 31 31 31 31 32 32 32 32 31 31
21 20 19 18 18 17 16 16 15 15 15 16 17 18 19 20 21 23 24 25 26 28 29 31 32 32 32 32 32 32 32 32 33 33 33 33 33 33
25 23 22 21 20 20 20 19 19 19 18 18 19 21 21 22 22 24 25 26 28 29 30 31 33 33 35 35 34 34 34 34 34 34 35 34 34 34
28 27 25 24 24 23 23 22 21 21 22 22 22 23 24 25 25 26 26 27 29 31 32 32 33 33 35 35 36 35 35 35 35 35 35 35 35 34
32 30 29 27 26 26 26 26 25 25 25 25 25 25 26 27 28 29 29 30 31 32 32 33 34 35 35 36 36 37 36 36 36 35 35 35 35 35
35 34 32 30 28 28 29 30 30 30 29 29 29 29 29 29 30 32 32 32 32 33 34 34 35 35 36 36 36 36 36 35 35 35 36 36 35 35
38 38 36 34 33 32 32 33 34 34 34 33 33 33 33 33 33 34 34 34 34 34 35 36 36 36 36 36 36 36 36 36 36 36 35 35 35 35
41 41 40 38 37 36 36 36 37 37 38 37 37 36 36 37 36 37 37 37 36 36 37 38 38 38 38 38 38 38 37 37 37 37 36 36 36 35
44 44 43 42 41 41 40 40 41 42 41 41 41 40 40 40 40 40 40 40 39 39 39 40 39 39 39 38 38 39 38 38 38 38 38 38 37 37
47 47 46 45 45 45 44 44 44 44 44 44 43 43 43 43 43 43 43 43 43 42 42 41 41 40 40 40 40 40 39 39 39 38 38 38 38 37
51 51 50 49 48 47 47 47 47 47 48 47 47 46 45 45 45 46 46 46 45 44 43 43 42 42 42 42 42 41 41 40 40 39 38 38 38 38
54 53 53 52 51 50 49 49 49 49 50 50 50 49 48 48 48 47 47 47 48 46 45 45 45 45 45 44 43 43 42 42 41 40 39 38 37 37
56 54 54 53 52 52 52 51 51 50 51 52 51 51 51 50 50 49 49 49 49 49 48 47 47 46 45 45 44 43 43 42 41 41 40 39 38 36
58 56 56 55 53 53 54 53 52 51 52 52 53 53 52 52 52 51 50 50 50 49 49 49 48 48 47 45 45 44 44 43 43 42 41 40 38 37
59 58 57 56 54 54 54 54 53 51 51 52 53 53 53 52 51 51 51 50 50 50 49 49 49 49 48 47 46 45 45 44 43 42 41 41 40 39
59 58 57 56 55 53 53 53 53 51 51 51 51 50 51 51 50 50 50 51 51 50 49 47 48 48 49 49 47 46 45 44 43 42 42 42 41 39
59 58 57 55 54 53 52 52 53 52 51 51 51 50 50 50 50 50 50 50 50 50 49 48 48 49 49 48 47 46 46 46 45 44 43 42 41 39
59 58 56 55 54 54 53 52 52 51 50 50 50 49 49 49 50 51 50 49 49 50 49 48 48 48 49 48 48 47 47 46 46 45 44 43 42 41
Wind_Direction
7 4 2 357 350 329 270 233 230 228 224 221 222 220 218 220 218 217 217 218 221 223 222 223 224 224 225 226 227 229 230 231 234 236 237 240 241 241
2 360 358 352 337 315 283 256 245 242 235 228 225 223 224 225 223 220 221 223 223 224 224 225 226 226 228 229 230 232 233 235 237 239 241 241 242 243
354 353 350 348 343 324 299 274 257 254 246 236 231 228 228 229 226 224 225 227 227 227 227 227 228 229 231 232 233 234 236 237 239 241 243 243 245 247
344 341 337 333 331 325 308 291 274 264 255 244 237 234 233 231 230 228 228 229 231 231 231 230 230 232 233 233 234 236 239 240 242 244 245 246 247 249
336 330 325 319 315 313 307 297 285 274 264 253 246 242 238 237 236 234 234 232 232 233 234 233 232 234 234 235 237 238 240 242 243 245 246 247 249 250
330 326 320 312 305 301 298 294 289 281 269 260 253 248 244 241 239 237 237 237 236 235 235 235 235 236 236 236 238 240 242 244 246 247 247 248 250 251
323 320 315 309 304 298 294 289 286 283 277 266 258 253 249 246 243 241 242 241 239 239 239 238 238 237 237 239 240 242 244 246 247 248 248 249 250 251
320 317 312 305 300 295 290 286 282 279 277 271 264 258 253 250 246 245 245 244 243 242 241 241 241 239 239 241 242 243 245 247 247 248 248 249 250 251
318 313 309 303 298 294 289 285 282 278 274 270 266 262 257 253 250 248 248 246 245 244 244 244 245 243 242 242 243 244 245 246 248 249 249 249 249 250
315 311 307 301 296 293 288 284 281 279 275 272 268 264 262 258 254 252 250 248 248 248 247 246 246 246 245 245 245 245 246 247 248 249 249 248 248 250
313 309 305 299 293 289 286 283 281 279 277 273 269 266 264 261 258 256 252 250 249 248 248 247 246 247 246 246 247 246 246 246 247 248 248 249 249 250
311 308 304 299 290 287 285 283 280 278 276 274 271 267 265 263 261 258 255 253 252 250 249 249 246 246 246 247 247 247 247 246 247 248 249 249 250 251
308 306 302 297 290 285 283 281 280 278 276 274 271 268 265 262 261 259 257 255 253 251 251 250 249 248 247 246 246 246 246 246 247 247 248 249 250 251
306 304 300 295 289 284 281 279 278 277 276 274 272 269 266 262 260 258 257 256 254 252 252 251 250 249 248 247 247 246 246 245 246 246 246 248 249 250
303 302 298 293 287 283 280 278 277 275 274 273 272 270 266 262 260 258 257 256 254 253 252 251 250 249 249 248 247 246 246 245 245 246 247 247 248 248
301 299 296 293 287 282 279 277 276 274 273 272 271 269 266 262 259 258 256 255 254 253 251 251 251 249 249 249 248 247 246 245 244 245 245 246 246 247
300 298 296 292 287 282 279 276 275 273 272 271 270 268 266 263 259 257 256 255 254 253 251 250 250 249 248 248 247 246 246 245 244 244 244 245 246 247
299 297 295 292 287 282 279 276 273 271 270 270 269 268 265 263 260 258 256 255 253 252 250 248 247 247 247 246 246 246 245 244 244 245 245 245 245 246
299 297 295 292 287 283 280 276 272 270 268 268 268 267 264 261 259 257 255 254 252 251 249 248 246 245 245 245 244 244 244 242 242 243 243 244 245 246
298 296 295 292 287 285 282 277 272 270 268 267 267 267 264 260 257 255 254 253 252 250 249 247 245 244 244 243 243 241 242 242 241 241 241 242 243 244
297 296 295 292 288 286 284 277 272 270 268 266 266 265 262 259 257 254 252 251 249 248 247 245 243 242 241 241 240 239 239 240 240 240 240 241 242 243
297 296 294 292 289 286 283 278 272 270 268 266 264 263 260 257 255 252 250 248 247 245 244 243 241 240 239 240 240 239 239 238 238 239 238 239 240 242
295 295 293 291 287 285 283 278 273 271 268 265 264 261 259 256 253 251 249 247 244 242 241 240 239 239 238 238 239 239 238 238 237 237 237 238 239 241
Height
5813 5811 5810 5809 5809 5808 5808 5808 5809 5810 5811 5812 5814 5816 5819 5822 5824 5827 5830 5834 5837 5839 5843 5846 5849 5852 5854 5857 5860 5862 5865 5868 5870 5872 5874 5876 5878 5880
5813 5811 5810 5809 5808 5808 5808 5808 5808 5809 5809 5810 5812 5813 5816 5818 5821 5823 5826 5829 5832 5835 5838 5841 5844 5846 5849 5852 5855 5857 5860 5862 5865 5867 5869 5871 5872 5874
5813 5811 5810 5808 5808 5807 5807 5806 5807 5807 5807 5808 5809 5811 5812 5815 5817 5819 5822 5825 5827 5830 5833 5836 5838 5841 5844 5846 5849 5852 5854 5857 5859 5861 5863 5865 5867 5868
5811 5810 5809 5807 5806 5806 5805 5805 5804 5804 5805 5805 5806 5807 5809 5811 5813 5815 5817 5820 5822 5825 5827 5830 5832 5835 5838 5840 5843 5846 5848 5850 5853 5855 5857 5859 5860 5862
5810 5808 5806 5805 5804 5803 5803 5802 5802 5801 5801 5802 5803 5803 5805 5806 5808 5810 5812 5814 5816 5819 5821 5824 5826 5829 5831 5834 5836 5839 5841 5844 5846 5848 5849 5851 5853 5855
5807 5805 5803 5802 5801 5800 5800 5799 5798 5798 5798 5798 5798 5799 5800 5801 5802 5804 5806 5808 5810 5812 5815 5817 5820 5822 5824 5827 5829 5832 5834 5836 5838 5840 5842 5844 5845 5847
5802 5800 5799 5797 5796 5796 5795 5794 5794 5794 5794 5794 5794 5794 5795 5796 5797 5798 5800 5801 5803 5805 5807 5810 5812 5814 5817 5819 5821 5823 5826 5827 5829 5831 5833 5835 5837 5838
5797 5794 5792 5791 5790 5790 5789 5789 5788 5788 5788 5788 5788 5789 5789 5790 5791 5792 5793 5795 5796 5798 5800 5802 5803 5806 5808 5810 5813 5815 5817 5819 5821 5823 5824 5826 5828 5829
5790 5787 5785 5784 5783 5783 5782 5782 5781 5781 5781 5782 5782 5782 5782 5783 5784 5785 5786 5787 5788 5790 5791 5793 5795 5797 5799 5801 5803 5805 5808 5810 5812 5813 5815 5817 5818 5820
5782 5779 5777 5775 5774 5774 5774 5774 5773 5773 5773 5773 5774 5774 5774 5774 5775 5776 5777 5778 5780 5781 5782 5784 5786 5788 5790 5791 5793 5796 5798 5800 5802 5804 5805 5807 5809 5811
5773 5770 5767 5765 5765 5764 5764 5764 5764 5764 5764 5764 5764 5764 5765 5765 5766 5767 5768 5769 5770 5771 5772 5775 5776 5778 5780 5782 5784 5786 5788 5790 5792 5794 5796 5798 5799 5801
5763 5759 5756 5754 5753 5752 5752 5753 5753 5753 5753 5753 5753 5754 5754 5754 5755 5756 5757 5758 5759 5761 5762 5764 5766 5767 5770 5772 5774 5776 5778 5780 5782 5784 5786 5788 5789 5791
5752 5748 5744 5741 5740 5740 5739 5740 5740 5741 5741 5741 5741 5742 5742 5743 5743 5744 5745 5746 5748 5751 5752 5753 5755 5757 5759 5762 5763 5765 5767 5770 5771 5774 5776 5778 5780 5781
5740 5736 5732 5729 5727 5726 5725 5726 5726 5726 5727 5727 5728 5728 5729 5730 5730 5731 5732 5734 5736 5738 5740 5741 5744 5746 5748 5750 5752 5754 5756 5759 5761 5763 5765 5767 5769 5771
5727 5722 5719 5715 5713 5711 5710 5710 5710 5711 5712 5713 5713 5714 5714 5715 5716 5717 5719 5720 5722 5724 5727 5729 5731 5733 5735 5738 5741 5743 5745 5747 5750 5752 5754 5757 5759 5761
5712 5707 5704 5700 5697 5696 5695 5694 5693 5694 5695 5696 5697 5698 5698 5699 5700 5702 5704 5705 5708 5710 5713 5715 5717 5720 5723 5725 5728 5731 5734 5736 5738 5740 5743 5746 5748 5750
5697 5692 5688 5684 5681 5679 5678 5677 5676 5676 5677 5678 5679 5680 5681 5683 5684 5686 5688 5690 5692 5695 5698 5701 5703 5706 5709 5712 5715 5718 5721 5724 5727 5729 5731 5734 5736 5739
5680 5675 5671 5667 5664 5661 5660 5659 5659 5658 5658 5659 5660 5661 5663 5664 5666 5669 5671 5673 5675 5679 5682 5686 5688 5691 5694 5698 5702 5705 5708 5711 5714 5717 5720 5723 5725 5728
5662 5657 5653 5649 5645 5643 5641 5640 5640 5640 5639 5640 5641 5642 5643 5645 5647 5650 5653 5655 5658 5662 5666 5669 5672 5675 5679 5684 5688 5691 5695 5698 5701 5704 5708 5711 5714 5717
5644 5639 5635 5630 5627 5624 5622 5620 5620 5620 5620 5620 5621 5622 5623 5625 5628 5631 5634 5637 5640 5644 5648 5653 5657 5660 5664 5669 5673 5677 5680 5684 5688 5692 5695 5699 5702 5706
5627 5622 5616 5612 5608 5605 5602 5601 5600 5600 5600 5601 5601 5602 5604 5606 5609 5612 5615 5619 5622 5626 5631 5636 5641 5645 5648 5652 5657 5663 5667 5671 5675 5679 5683 5687 5690 5694
5609 5603 5598 5594 5590 5587 5584 5582 5581 5581 5581 5582 5582 5583 5585 5587 5590 5593 5597 5601 5605 5609 5614 5620 5624 5628 5633 5637 5642 5648 5653 5657 5662 5666 5670 5675 5679 5683
5590 5585 5580 5576 5572 5568 5565 5563 5562 5562 5562 5563 5563 5565 5566 5569 5572 5575 5579 5583 5587 5592 5597 5602 5608 5613 5618 5623 5628 5634 5639 5643 5648 5653 5658 5663 5667 5671